Terminal Aerodrome Forecast
Issued by NWS Charleston, WV

Current Version | Previous Version | Graphics & Text | Print | Product List | Glossary On
Versions: 1 2 3 4 5 6 7 8 9 10 11 12 13 14 15 16 17 18 19 20 21 22 23 24 25 26 27 28
000
FTUS41 KRLX 200858 AAA
TAFHTS
TAF AMD
KHTS 200858Z 2009/2106 13005KT 5SM -RA BR SCT008 OVC015
      TEMPO 2010/2013 2SM -RA OVC008
     FM201400 20006KT P6SM BKN025
     FM201700 23008KT P6SM BKN040
     FM202200 20005KT P6SM SCT040=

USA.gov is the U.S. government's official web portal to all federal, state and local government web resources and services.